Regional Weather Roundup
Issued by NWS

Home | Current Version | Previous Version | Graphics & Text | Print | Product List | Glossary On
Versions: 1 2 3 4 5 6 7 8 9 10 11 12 13 14 15 16 17 18 19 20 21 22 23 24 25 26 27 28 29 30 31 32 33 34 35 36 37 38 39 40 41 42 43 44 45 46 47 48 49
000
ASUS45 KBOU 220407
RWRCO

WEATHER ROUNDUP FOR COLORADO
NATIONAL WEATHER SERVICE DENVER/BOULDER CO
1000 PM MDT THU AUG 21 2014

NOTE: "FAIR" INDICATES FEW OR NO CLOUDS BELOW 12000 FEET WITH NO
SIGNIFICANT WEATHER AND/OR OBSTRUCTIONS TO VISIBILITY.

COZ001>005-013-030-031-220500-
...NORTHWEST COLORADO...

CITY           SKY/WX    TMP DP  RH WIND       PRES   REMARKS
CRAIG          MOCLDY    56  47  71 CALM      30.24R
HAYDEN         MOCLDY    57  43  58 W6        30.25S
MEEKER         MOCLDY    62  45  53 E6        30.23R
MOUNT WERNER   NOT AVBL
STEAMBOAT SPGS MOCLDY    56  47  72 E3        30.27R
WALDEN         CLOUDY    50  41  71 N10       30.35S
$$

COZ006>008-011-220500-
...WEST CENTRAL VALLEYS...

CITY           SKY/WX    TMP DP  RH WIND       PRES   REMARKS
GRAND JUNCTION MOCLDY    64  51  62 CALM      30.10R
MONTROSE       CLOUDY    70  47  43 SE7       30.19R
EAGLE          CLOUDY    64  46  52 E6        30.25R
RIFLE          CLOUDY    67  44  43 SE7       30.16R
DELTA          CLOUDY    74  47  38 CALM      30.13S
NUCLA          CLOUDY    72  41  33 CALM      30.22R
$$

COZ017>023-064>068-220500-
...SOUTHWEST COLORADO...

CITY           SKY/WX    TMP DP  RH WIND       PRES   REMARKS
DURANGO        CLOUDY    70  42  36 W7        30.22R
CORTEZ         CLOUDY    67  44  43 CALM      30.19R
PAGOSA SPRINGS CLOUDY    65  39  38 CALM      30.29R
TELLURIDE      CLOUDY    55  45  67 CALM      30.41S
WOLF CREEK PAS NOT AVBL
$$

COZ009-010-012-014-032>034-037-058>063-220500-
...CENTRAL COLORADO...

CITY           SKY/WX    TMP DP  RH WIND       PRES   REMARKS
ASPEN          CLOUDY    62  43  49 SE8       30.31S
BUENA VISTA    CLOUDY    64  38  37 NW10      30.32R
COPPER MTN     DRIZZLE   50  32  50 S8        30.62S
BERTHOUD PASS  CLOUDY    41  39  93 W7        30.66S
COTTONWOOD PAS CLOUDY    61  30  31 W9        30.45S
GUNNISON       CLOUDY    61  41  48 CALM      30.33S
KREMMLING      MOCLDY    59  41  51 N5        30.31R
LEADVILLE      CLOUDY    51  39  63 N5        30.46R
SALIDA         CLOUDY    70  37  30 NW9       30.35R
SUNLIGHT       CLOUDY    52  37  58 CALM      30.54R
WILKERSON PASS LGT RAIN  52  36  54 S8        30.58S
$$

COZ069>075-220500-
...SAN LUIS VALLEY/SANGRE DE CRISTO MOUNTAINS...

CITY           SKY/WX    TMP DP  RH WIND       PRES   REMARKS
ALAMOSA        CLOUDY    66  41  40 NW6       30.25R
LA VETA PASS   NOT AVBL
SAGUACHE       CLOUDY    64  37  36 NW18      30.29S
$$

COZ035-036-038>040-220500-
...NORTHERN COLORADO FRONT RANGE...

CITY           SKY/WX    TMP DP  RH WIND       PRES   REMARKS
DENVER INTL AP MOCLDY    65  55  70 E6        30.15R
DMNS CITY PARK   N/A     67  53  61 N2        30.15S
AURORA         MOCLDY    63  54  73 CALM      30.19R
FRONT RANGE AP NOT AVBL
ERIE MUNI ARPT MOCLDY    69  51  53 CALM      30.14S
BOULDER MUN AP MOCLDY    66  55  68 CALM      30.15S
CENTENNIAL     CLOUDY    68  48  48 CALM      30.19R
BROOMFIELD     MOCLDY    72  48  43 SW6       30.19R
FORT COLLINS   CLOUDY    66  57  72 SE9       30.16R
LONGMONT       DRIZZLE   67  58  73 W5        30.16S
$$

COZ041-046-047-076>085-087-088-220500-
...PIKES PEAK/PALMER DIVIDE AND SOUTHERN FOOTHILLS...

CITY           SKY/WX    TMP DP  RH WIND       PRES   REMARKS
COLO. SPRINGS  MOCLDY    69  50  50 N16       30.20R
A. F. ACADEMY  MOCLDY    64  50  61 N8        30.23R
ELLICOTT       CLOUDY    72  49  44 SE7       30.17R
FALCON         CLOUDY    64  49  60 N13       30.26R
FORT CARSON    NOT AVBL
LIMON          MOCLDY    66  54  65 N13G21    30.15R
MONUMENT HILL  MOCLDY    59  50  72 W3        30.27R
TRINIDAD       MOCLDY    73  51  46 CALM      30.13R
$$

COZ042>045-048>051-090-091-220500-
...NORTHEAST COLORADO...

CITY           SKY/WX    TMP DP  RH WIND       PRES   REMARKS
GREELEY ARPT   CLOUDY    64  52  63 SW10      30.14R
AKRON          LGT RAIN  66  58  75 W14G29    30.15R
BURLINGTON     CLEAR     69  48  47 E6        30.05R
WRAY             N/A     73  52  46 CALM      30.01S
STERLING       MOCLDY    72  59  64 SW15      30.06R
HOLYOKE        NOT AVBL
FORT MORGAN    CLOUDY    64  59  84 N3        30.11F
$$

COZ086-089-092>099-220500-
...SOUTHEAST COLORADO...

CITY           SKY/WX    TMP DP  RH WIND       PRES   REMARKS
PUEBLO         PTCLDY    77  51  40 E6        30.04R
LA JUNTA       MOCLDY    81  50  33 S10       30.01R
LAMAR          PTCLDY    78  55  44 E5        29.97R
SPRINGFIELD      N/A     72  57  59 S5        30.04R
$$



USA.gov is the U.S. government's official web portal to all federal, state and local government web resources and services.